Location: Lauresses
(44.7683°N, 2.1236°E)
Time: 05:32:17
(UTC+00:00)

Daily predictions for brighter satellites

Satellite Brightness Start Highest point End
(mag) Time Altitude Azimuth Time Altitude Azimuth Time Altitude Azimuth
ATLAS 2AS CENTAUR R/B 2.9 00:09:45 60° WNW 00:10:04 61° NW 00:16:51 10° NNE
Cosmos 1980 Rocket 2.8 00:20:03 10° NNW 00:24:19 52° NNW 00:24:19 52° NNW
Cosmos 2369 4.3 00:31:23 10° NNW 00:36:37 53° NE 00:36:37 53° NE
Cosmos 2333 Rocket 3.9 00:48:39 10° N 00:53:34 29° NE 00:57:05 16° ESE
USA 281 4.1 00:51:27 25° ESE 00:54:48 44° NE 01:00:58 10° NNW
Cosmos 2082 Rocket 2.5 00:59:24 66° NNE 00:59:24 66° NNE 01:04:17 10° NNE
Cosmos 1833 Rocket 4.4 01:00:04 22° WNW 01:00:47 22° NW 01:05:07 10° N
Cosmos 2098 Rocket 4.5 01:03:15 43° NW 01:03:15 43° NW 01:07:41 10° N
Cosmos 2322 Rocket 4.2 01:03:07 10° N 01:07:45 25° NE 01:12:22 10° ESE
NOSS 3-3 (A) 4.3 01:14:12 45° E 01:14:12 45° E 01:19:01 10° NE
ACS3 Solar Sail 1.7 01:12:34 10° N 01:18:32 82° NW 01:18:32 82° NW
CZ-4C R/B 2.6 01:22:06 47° N 01:22:06 47° N 01:26:22 10° NNE
SL-16 R/B 2.8 01:17:38 10° NNW 01:23:11 52° ENE 01:24:53 39° ESE
GP-B 4.4 01:20:46 10° N 01:23:25 36° NNW 01:23:25 36° NNW
SL-4 R/B 4.2 01:31:34 20° ENE 01:31:34 20° ENE 01:33:00 10° E
NOSS 3-3 (C) 4.0 01:30:27 54° ESE 01:30:27 54° ESE 01:35:53 10° NE
Cosmos 2058 Rocket 4.0 01:32:04 45° N 01:32:04 45° N 01:35:09 10° N
ATLAS 3B R/B 3.5 01:23:44 10° NW 01:29:24 39° W 01:29:24 39° W
USA 267 3.7 01:27:21 10° ENE 01:33:35 44° SE 01:34:01 43° SE
Cosmos 2026 Rocket 4.4 01:29:28 10° NNW 01:35:02 49° WNW 01:35:02 49° WNW
Cosmos 909 Rocket 4.3 01:37:58 52° W 01:38:48 55° NW 01:45:04 10° NNE
Cosmos 1092 Rocket 4.4 01:43:21 10° NNW 01:48:43 45° WNW 01:48:43 45° WNW
Meteor 2-6 Rocket 4.1 01:49:06 74° SSE 01:49:36 84° E 01:55:31 10° NNE
Meteor 1-26 Rocket 4.5 01:51:49 51° WNW 01:51:49 51° WNW 01:56:46 10° N
IDEFIX/ARIANE 42P 2.5 01:52:10 10° N 01:57:20 73° WNW 01:57:21 73° WNW
Envisat 4.1 01:55:12 10° NNE 01:59:54 37° E 02:01:23 30° SE
Iridium 4 Rocket 4.2 02:03:01 36° SE 02:04:16 44° E 02:09:00 10° NNE
MOZ.5/SAFIR/RUBIN 5/SL-8 4.0 02:05:32 53° SE 02:06:25 66° ENE 02:11:02 10° N
H-2A R/B 4.1 02:06:25 21° ESE 02:07:47 27° ENE 02:10:53 10° N
Cosmos 44 Rocket 4.2 02:08:21 37° WNW 02:08:54 38° NW 02:13:44 10° NNE
Cosmos 1980 Rocket 4.4 02:05:45 10° WNW 02:06:02 11° WNW 02:06:02 11° WNW
USA 234 4.1 02:03:47 10° E 02:10:02 50° NNE 02:16:18 10° NW
Cosmos 1975 3.5 02:07:58 10° N 02:10:36 44° N 02:10:36 44° N
Cosmos 990 Rocket 4.5 02:06:51 10° NNW 02:11:55 57° ENE 02:15:53 16° SE
ADEOS II 3.6 02:08:51 10° NE 02:13:24 29° E 02:16:28 17° SE
Cosmos 1763 Rocket 3.5 02:13:17 60° SSE 02:14:08 74° ESE 02:19:26 10° NNE
COSMOS 2406 3.6 02:14:30 45° W 02:15:23 48° WNW 02:20:58 10° NNE
ALOS 3.3 02:13:43 10° NNE 02:17:59 38° E 02:19:31 29° SE
MSX 4.1 02:13:18 10° N 02:18:51 52° WNW 02:19:47 47° W
CZ-2D R/B 2.8 02:17:01 10° NNE 02:22:06 47° E 02:24:32 28° SSE
ADEOS Rocket 3.5 02:17:43 10° NNE 02:25:19 78° WNW 02:28:49 37° SSW
Cosmos 1375 Rocket 4.5 02:31:37 44° SW 02:33:52 82° NW 02:40:29 10° NNE
Cosmos 1354 Rocket 3.9 02:29:11 10° NNW 02:34:30 89° ENE 02:38:18 19° SSE
Cosmos 1503 Rocket 3.9 02:30:39 10° NNW 02:35:50 62° WSW 02:37:01 48° SSW
Cosmos 2360 Rocket 2.1 02:31:11 10° NNW 02:36:53 84° WSW 02:42:32 10° SSE
FENGYUN 3A 4.1 02:31:56 10° N 02:37:06 46° WNW 02:38:14 40° WSW
Cosmos 2333 Rocket 2.3 02:32:38 10° NW 02:38:05 49° WSW 02:38:59 45° SW
Alouette 2 Rocket 4.4 02:35:02 10° N 02:38:51 42° ENE 02:41:40 14° SE
USA 281 3.6 02:38:17 38° SW 02:39:18 41° WSW 02:45:28 10° NW
Cosmos 540 Rocket 3.4 02:41:19 49° SW 02:42:39 71° WNW 02:47:48 10° NNE
Cosmos 2082 Rocket 4.1 02:41:13 15° WNW 02:43:25 18° NW 02:47:17 10° N
Cosmos 2221 3.1 02:43:58 37° WNW 02:43:58 37° WNW 02:47:39 10° N
Cosmos 468 Rocket 4.1 02:46:38 34° S 02:48:56 75° ESE 02:54:14 10° NNE
NPP 4.5 02:45:18 10° N 02:50:08 35° WNW 02:51:27 30° W
Resurs 1-4 Rocket 2.0 02:45:30 10° NNE 02:50:50 88° WNW 02:53:19 33° SSW
Meteor 2-9 Rocket 4.5 02:46:12 10° NNW 02:51:11 42° W 02:52:07 38° WSW
Cosmos 2278 4.0 02:46:18 10° NW 02:51:39 42° WSW 02:52:57 37° SW
BREEZE-M DEB (TANK) 3.9 02:50:12 23° NW 02:51:49 48° NNE 02:58:39 10° E
Cosmos 2322 Rocket 2.2 02:46:38 10° NNW 02:52:11 59° WSW 02:56:37 16° S
DNEPR-1 R/B 4.5 02:49:27 10° NNW 02:54:53 76° NE 03:01:33 10° SE
Cosmos 1833 4.1 02:53:59 35° SSW 02:56:30 81° WNW 03:02:13 10° NNE
Cosmos 1766 Rocket 3.6 02:53:54 10° N 02:58:16 78° E 03:01:40 16° SSE
ACS3 Solar Sail 3.6 02:56:49 10° NNW 03:00:09 15° WNW 03:02:06 13° WNW
Cosmos 1271 Rocket 4.0 03:01:02 23° WNW 03:01:02 23° WNW 03:03:23 10° NNW
H-2A R/B 2.0 02:59:49 10° NNE 03:04:59 86° ESE 03:08:28 22° SSW
Cosmos 2219 Rocket 2.1 03:00:29 10° NNW 03:06:08 80° WSW 03:11:47 10° SSE
SL-16 R/B 3.2 03:02:22 10° NW 03:06:38 25° W 03:06:38 25° W
SL-4 R/B 1.7 03:05:08 28° WNW 03:07:00 64° SW 03:10:44 10° SE
Meteor 1-11 Rocket 4.0 03:02:40 10° NNW 03:08:19 49° W 03:11:37 23° SSW
CZ-3 Stage 3 3.9 03:05:05 25° SW 03:09:12 38° SSE 03:29:14 10° ESE
USA 290 2.9 03:10:18 35° WNW 03:10:22 35° WNW 03:13:20 10° N
CZ-4C R/B 4.1 03:07:39 10° WNW 03:10:47 17° NNW 03:14:25 10° NNE
ARGOS 3.9 03:10:42 10° NNE 03:15:57 50° E 03:21:08 10° S
USA 267 3.5 03:10:16 10° NE 03:16:45 65° NNW 03:21:22 20° WSW
METEOR-M 4.2 03:13:15 10° NNE 03:18:36 79° ESE 03:23:23 13° S
Gbstr 26 Del rocket 2.5 03:19:26 14° WNW 03:22:29 60° SW 03:26:13 10° SE
Cosmos 2322 4.4 03:20:46 10° NNW 03:26:26 59° ENE 03:32:02 10° SE
Cosmos 372 Rocket 3.9 03:25:27 10° NNW 03:30:35 68° WSW 03:35:39 10° S
ISS -3.7 03:29:12 31° SW 03:30:39 69° SSE 03:34:01 10° ENE
JB-3 4.3 03:30:38 16° S 03:33:15 48° W 03:36:46 10° NNW
BREEZE-M DEB (TANK) 2.6 03:31:25 19° WSW 03:36:26 78° SSE 03:39:28 10° ENE
Cosmos 1655 Rocket 4.3 03:31:24 10° NNW 03:37:13 43° W 03:43:01 10° SSW
Meteor 2-4 Rocket 3.8 03:34:20 17° SSW 03:38:18 52° WNW 03:43:33 10° N
Envisat 4.0 03:34:20 10° N 03:38:42 30° WNW 03:41:31 18° WSW
Cosmos 1461 2.6 03:37:00 23° SW 03:39:10 67° NW 03:42:53 10° NNE
H-2A R/B 3.4 03:41:23 20° WSW 03:41:45 20° W 03:44:30 10° NW
Cosmos 2084 Rocket 4.1 03:38:05 10° WNW 03:41:50 31° WSW 03:45:36 10° S
Cosmos 1244 Rocket 4.5 03:35:45 10° NNW 03:41:58 68° W 03:48:05 10° S
Aureole 1 Rocket 3.8 03:38:01 10° NW 03:42:06 38° WSW 03:47:06 10° S
Cosmos 1066 Rocket 4.1 03:38:36 11° SSW 03:43:45 68° WNW 03:49:06 10° N
NOSS 3-4 (A) 3.9 03:37:12 10° NW 03:44:01 61° WSW 03:51:58 10° SSE
NOSS 3-4 (C) 3.9 03:37:44 10° NW 03:44:34 62° WSW 03:52:33 10° SSE
AQUA 3.8 03:41:28 10° NNE 03:46:09 89° WNW 03:50:50 10° SSW
Cosmos 1151 Rocket 3.6 03:43:18 10° S 03:47:26 58° E 03:51:36 10° NNE
Cosmos 1842 Rocket 3.8 03:46:03 14° SSW 03:49:28 47° WNW 03:53:40 10° N
Cosmos 1238 Rocket 3.9 03:50:21 14° W 03:50:47 15° WNW 03:52:34 10° NW
Cosmos 1500 Rocket 4.2 03:47:25 10° N 03:51:48 61° E 03:56:10 10° SSE
Nadezhda 2 Rocket 4.4 03:46:01 10° NNW 03:52:05 65° W 03:58:05 10° S
BREEZE-M DEB (TANK) 3.9 03:44:41 10° WNW 03:52:41 38° SW 03:55:43 10° SSE
USA 234 3.3 03:46:28 10° SE 03:52:56 64° SW 03:59:27 10° NW
ADEOS II 2.7 03:48:11 10° N 03:53:00 39° WNW 03:57:16 13° SW
BREEZE-M DEB (TANK) 4.4 03:50:14 10° WNW 03:53:07 20° N 03:54:56 10° NE
BREEZE-M DEB (TANK) 3.5 03:50:14 10° WNW 03:53:56 63° SSW 04:06:04 10° SE
ALOS 3.5 03:51:04 10° NNW 03:54:42 24° WNW 03:57:33 14° WSW
Cosmos 2297 Rocket 3.2 03:50:40 10° S 03:56:00 46° ESE 04:01:23 10° NE
Cosmos 1386 Rocket 4.5 03:49:55 10° N 03:56:04 84° W 04:02:17 10° S
S3M 4.4 03:52:28 10° S 03:58:46 69° E 04:05:01 10° NNE
CZ-2D R/B 3.3 03:57:32 10° N 04:01:48 26° WNW 04:05:48 11° WSW
Cosmos 841 Rocket 3.8 03:58:30 11° SW 04:03:17 51° WNW 04:08:22 10° NNE
Sich 1 3.1 03:59:30 10° NNW 04:03:32 51° W 04:07:32 10° S
SL-16 R/B 2.5 03:57:32 10° S 04:03:46 69° WSW 04:10:03 10° NNW
Okean 3 Rocket 3.7 04:00:14 10° NNW 04:04:35 55° W 04:08:56 10° S
Cosmos 1758 3.0 04:01:36 10° NNW 04:05:15 76° W 04:08:51 10° S
COSMOS 2428 2.7 03:59:44 10° NNW 04:05:28 82° WSW 04:11:09 10° SSE
CZ-3 R/B 3.9 03:44:23 10° WSW 04:08:16 37° SSW 04:16:17 10° SE
Cosmos 1898 Rocket 3.9 04:07:05 10° NW 04:11:52 39° WSW 04:16:37 10° S
Cosmos 1743 Rocket 4.1 04:08:28 10° N 04:12:51 65° E 04:17:10 10° SSE
Cosmos 1805 Rocket 3.5 04:09:01 10° NNW 04:13:25 74° W 04:17:45 10° S
Cosmos 1937 Rocket 3.7 04:11:23 10° NNW 04:16:23 49° WSW 04:21:18 10° S
DELTA 2 R/B (1) 4.4 04:14:06 10° SW 04:19:12 39° SSE 04:24:20 10° E
Cosmos 2360 Rocket 3.9 04:17:48 10° WNW 04:19:55 12° W 04:22:01 10° WSW
USA 276 1.4 04:19:23 10° W 04:20:54 31° SSW 04:22:36 10° SE
H-2A R/B 2.3 04:18:22 10° N 04:22:12 44° WNW 04:25:58 10° SW
Meteor 2-10 Rocket 4.3 04:21:56 10° NNW 04:26:25 31° W 04:31:00 10° SSW
